Time,TemperatureF,DewpointF,PressureIn,WindDirection,WindDirectionDegrees,WindSpeedMPH,WindSpeedGustMPH,Humidity,HourlyPrecipIn,Conditions,Clouds,dailyrainin,SoftwareType,DateUTC
2013-03-26 00:02:00,31.9,27.9,30.11,West,268,1.0,9.0,85,0.00,,,0.00,Wunderground v.1.15,2013-03-26 05:02:00,
2013-03-26 00:07:00,32.0,27.7,30.11,WNW,290,2.0,9.0,84,0.00,,,0.00,Wunderground v.1.15,2013-03-26 05:07:00,
2013-03-26 00:12:00,32.1,27.8,30.10,WSW,251,2.0,9.0,84,0.00,,,0.00,Wunderground v.1.15,2013-03-26 05:12:00,
2013-03-26 00:18:00,32.2,27.9,30.11,WNW,292,3.0,9.0,84,0.00,,,0.00,Wunderground v.1.15,2013-03-26 05:18:00,
2013-03-26 00:24:00,32.4,27.5,30.11,WNW,285,2.0,9.0,82,0.00,,,0.00,Wunderground v.1.15,2013-03-26 05:24:00,
2013-03-26 00:29:00,32.6,27.7,30.11,WNW,303,1.0,1.0,82,0.00,,,0.00,Wunderground v.1.15,2013-03-26 05:29:00,
2013-03-26 00:34:00,32.5,27.6,30.11,WNW,294,1.0,9.0,82,0.00,,,0.00,Wunderground v.1.15,2013-03-26 05:34:00,
2013-03-26 00:40:00,32.4,27.8,30.11,WNW,283,1.0,1.0,83,0.00,,,0.00,Wunderground v.1.15,2013-03-26 05:40:00,
2013-03-26 00:46:00,32.2,27.9,30.11,WNW,297,1.0,9.0,84,0.00,,,0.00,Wunderground v.1.15,2013-03-26 05:46:00,
2013-03-26 00:52:00,32.0,27.7,30.11,WNW,302,1.0,9.0,84,0.00,,,0.00,Wunderground v.1.15,2013-03-26 05:52:00,
2013-03-26 00:58:00,31.8,27.5,30.11,NW,307,1.0,9.0,84,0.00,,,0.00,Wunderground v.1.15,2013-03-26 05:58:00,
2013-03-26 01:03:00,31.9,27.9,30.11,WNW,293,1.0,9.0,85,0.00,,,0.00,Wunderground v.1.15,2013-03-26 06:03:00,
2013-03-26 01:09:00,31.7,28.0,30.11,WNW,299,0.0,9.0,86,0.00,,,0.00,Wunderground v.1.15,2013-03-26 06:09:00,
2013-03-26 01:14:00,31.6,27.9,30.11,WNW,297,0.0,9.0,86,0.00,,,0.00,Wunderground v.1.15,2013-03-26 06:14:00,
2013-03-26 01:19:00,31.5,28.1,30.11,WNW,286,0.0,9.0,87,0.00,,,0.00,Wunderground v.1.15,2013-03-26 06:19:00,
2013-03-26 01:25:00,31.3,28.2,30.11,NW,314,0.0,9.0,88,0.00,,,0.00,Wunderground v.1.15,2013-03-26 06:25:00,
2013-03-26 01:30:00,31.3,28.2,30.11,West,275,2.0,2.0,88,0.00,,,0.00,Wunderground v.1.15,2013-03-26 06:30:00,
2013-03-26 01:35:00,31.1,28.2,30.11,WNW,287,3.0,9.0,89,0.00,,,0.00,Wunderground v.1.15,2013-03-26 06:35:00,
2013-03-26 01:42:00,31.2,28.1,30.11,WNW,293,2.0,9.0,88,0.00,,,0.00,Wunderground v.1.15,2013-03-26 06:42:00,
2013-03-26 01:48:00,31.4,28.3,30.11,West,276,1.0,9.0,88,0.00,,,0.00,Wunderground v.1.15,2013-03-26 06:48:00,
2013-03-26 01:54:00,31.6,27.9,30.11,NW,309,1.0,9.0,86,0.00,,,0.00,Wunderground v.1.15,2013-03-26 06:54:00,
2013-03-26 01:59:00,31.8,27.8,30.12,WNW,303,3.0,9.0,85,0.00,,,0.00,Wunderground v.1.15,2013-03-26 06:59:00,
2013-03-26 02:05:00,31.9,27.9,30.12,WNW,292,1.0,9.0,85,0.00,,,0.00,Wunderground v.1.15,2013-03-26 07:05:00,
2013-03-26 02:11:00,32.1,27.8,30.11,NNW,344,2.0,9.0,84,0.00,,,0.00,Wunderground v.1.15,2013-03-26 07:11:00,
2013-03-26 02:17:00,32.2,27.9,30.11,West,275,3.0,9.0,84,0.00,,,0.00,Wunderground v.1.15,2013-03-26 07:17:00,
2013-03-26 02:23:00,32.3,27.1,30.11,WNW,302,2.0,9.0,81,0.00,,,0.00,Wunderground v.1.15,2013-03-26 07:23:00,
2013-03-26 02:28:00,32.2,27.3,30.11,West,280,1.0,9.0,82,0.00,,,0.00,Wunderground v.1.15,2013-03-26 07:28:00,
2013-03-26 02:33:00,32.2,27.3,30.11,WNW,302,1.0,9.0,82,0.00,,,0.00,Wunderground v.1.15,2013-03-26 07:33:00,
2013-03-26 02:39:00,32.3,26.8,30.11,WNW,303,1.0,9.0,80,0.00,,,0.00,Wunderground v.1.15,2013-03-26 07:39:00,
2013-03-26 02:44:00,32.4,26.9,30.11,NW,310,2.0,9.0,80,0.00,,,0.00,Wunderground v.1.15,2013-03-26 07:44:00,
2013-03-26 02:49:00,32.5,26.7,30.11,WNW,302,2.0,9.0,79,0.00,,,0.00,Wunderground v.1.15,2013-03-26 07:49:00,
2013-03-26 02:55:00,32.5,26.7,30.11,WNW,296,2.0,9.0,79,0.00,,,0.00,Wunderground v.1.15,2013-03-26 07:55:00,
2013-03-26 03:00:00,32.5,26.7,30.11,NW,309,2.0,2.0,79,0.00,,,0.00,Wunderground v.1.15,2013-03-26 08:00:00,
2013-03-26 03:05:00,32.6,26.8,30.11,NW,306,2.0,9.0,79,0.00,,,0.00,Wunderground v.1.15,2013-03-26 08:05:00,
2013-03-26 03:11:00,32.5,26.7,30.11,NW,310,2.0,9.0,79,0.00,,,0.00,Wunderground v.1.15,2013-03-26 08:11:00,
2013-03-26 03:16:00,32.5,26.7,30.11,NW,313,1.0,9.0,79,0.00,,,0.00,Wunderground v.1.15,2013-03-26 08:16:00,
2013-03-26 03:22:00,32.5,26.7,30.11,NW,310,1.0,9.0,79,0.00,,,0.00,Wunderground v.1.15,2013-03-26 08:22:00,
2013-03-26 03:28:00,32.5,26.7,30.11,NW,306,2.0,9.0,79,0.00,,,0.00,Wunderground v.1.15,2013-03-26 08:28:00,
2013-03-26 03:34:00,32.5,26.7,30.11,NW,309,2.0,9.0,79,0.00,,,0.00,Wunderground v.1.15,2013-03-26 08:34:00,
2013-03-26 03:39:00,32.4,26.6,30.11,WNW,294,2.0,9.0,79,0.00,,,0.00,Wunderground v.1.15,2013-03-26 08:39:00,
2013-03-26 03:45:00,32.3,26.8,30.11,NNW,328,2.0,9.0,80,0.00,,,0.00,Wunderground v.1.15,2013-03-26 08:45:00,
2013-03-26 03:50:00,32.3,26.5,30.11,NW,311,2.0,9.0,79,0.00,,,0.00,Wunderground v.1.15,2013-03-26 08:50:00,
2013-03-26 03:55:00,32.2,26.4,30.11,NNW,339,2.0,9.0,79,0.00,,,0.00,Wunderground v.1.15,2013-03-26 08:55:00,
2013-03-26 04:01:00,32.2,26.4,30.11,NW,309,2.0,9.0,79,0.00,,,0.00,Wunderground v.1.15,2013-03-26 09:01:00,
2013-03-26 04:06:00,32.2,26.4,30.11,NW,318,2.0,9.0,79,0.00,,,0.00,Wunderground v.1.15,2013-03-26 09:06:00,
2013-03-26 04:12:00,32.2,26.4,30.11,NW,308,2.0,9.0,79,0.00,,,0.00,Wunderground v.1.15,2013-03-26 09:12:00,
2013-03-26 04:17:00,32.2,26.4,30.11,NW,310,1.0,9.0,79,0.00,,,0.00,Wunderground v.1.15,2013-03-26 09:17:00,
2013-03-26 04:22:00,32.1,26.6,30.11,WNW,286,1.0,9.0,80,0.00,,,0.00,Wunderground v.1.15,2013-03-26 09:22:00,
2013-03-26 04:28:00,32.0,26.5,30.11,WNW,299,2.0,9.0,80,0.00,,,0.00,Wunderground v.1.15,2013-03-26 09:28:00,
2013-03-26 04:33:00,32.0,26.2,30.11,NW,314,3.0,9.0,79,0.00,,,0.00,Wunderground v.1.15,2013-03-26 09:33:00,
2013-03-26 04:38:00,32.0,26.5,30.11,NW,316,3.0,9.0,80,0.00,,,0.00,Wunderground v.1.15,2013-03-26 09:38:00,
2013-03-26 04:44:00,32.0,26.5,30.11,NW,308,3.0,9.0,80,0.00,,,0.00,Wunderground v.1.15,2013-03-26 09:44:00,
2013-03-26 04:49:00,32.1,26.6,30.11,NW,318,4.0,9.0,80,0.00,,,0.00,Wunderground v.1.15,2013-03-26 09:49:00,
2013-03-26 04:55:00,32.0,26.5,30.11,NW,310,4.0,10.0,80,0.00,,,0.00,Wunderground v.1.15,2013-03-26 09:55:00,
2013-03-26 05:00:00,32.0,26.8,30.11,NW,323,3.0,9.0,81,0.00,,,0.00,Wunderground v.1.15,2013-03-26 10:00:00,
2013-03-26 05:05:00,32.0,26.5,30.11,NW,309,3.0,9.0,80,0.00,,,0.00,Wunderground v.1.15,2013-03-26 10:05:00,
2013-03-26 05:12:00,32.0,26.8,30.11,NW,309,3.0,9.0,81,0.00,,,0.00,Wunderground v.1.15,2013-03-26 10:12:00,
2013-03-26 05:17:00,31.9,27.0,30.11,NW,316,2.0,9.0,82,0.00,,,0.00,Wunderground v.1.15,2013-03-26 10:17:00,
2013-03-26 05:23:00,31.9,26.7,30.12,NW,314,3.0,9.0,81,0.00,,,0.00,Wunderground v.1.15,2013-03-26 10:23:00,
2013-03-26 05:28:00,31.9,26.7,30.12,NW,307,3.0,9.0,81,0.00,,,0.00,Wunderground v.1.15,2013-03-26 10:28:00,
2013-03-26 05:34:00,31.8,26.9,30.12,WNW,299,2.0,9.0,82,0.00,,,0.00,Wunderground v.1.15,2013-03-26 10:34:00,
2013-03-26 05:39:00,31.9,27.0,30.12,NW,307,2.0,9.0,82,0.00,,,0.00,Wunderground v.1.15,2013-03-26 10:39:00,
2013-03-26 05:44:00,31.9,27.0,30.12,NW,310,3.0,9.0,82,0.00,,,0.00,Wunderground v.1.15,2013-03-26 10:44:00,
2013-03-26 05:50:00,31.9,27.0,30.12,NW,310,3.0,3.0,82,0.00,,,0.00,Wunderground v.1.15,2013-03-26 10:50:00,
2013-03-26 05:55:00,31.9,27.0,30.13,NW,318,2.0,9.0,82,0.00,,,0.00,Wunderground v.1.15,2013-03-26 10:55:00,
2013-03-26 06:01:00,32.0,27.1,30.13,NW,311,3.0,9.0,82,0.00,,,0.00,Wunderground v.1.15,2013-03-26 11:01:00,
2013-03-26 06:07:00,32.0,27.1,30.13,WNW,298,2.0,9.0,82,0.00,,,0.00,Wunderground v.1.15,2013-03-26 11:07:00,
2013-03-26 06:12:00,32.1,26.9,30.13,NW,313,2.0,9.0,81,0.00,,,0.00,Wunderground v.1.15,2013-03-26 11:12:00,
2013-03-26 06:18:00,32.1,27.2,30.14,WNW,297,1.0,9.0,82,0.00,,,0.00,Wunderground v.1.15,2013-03-26 11:18:00,
2013-03-26 06:24:00,32.1,27.2,30.14,NW,306,1.0,9.0,82,0.00,,,0.00,Wunderground v.1.15,2013-03-26 11:24:00,
2013-03-26 06:29:00,32.3,26.8,30.14,NW,307,3.0,9.0,80,0.00,,,0.00,Wunderground v.1.15,2013-03-26 11:29:00,
2013-03-26 06:34:00,32.3,27.1,30.14,NW,313,3.0,9.0,81,0.00,,,0.00,Wunderground v.1.15,2013-03-26 11:34:00,
2013-03-26 06:40:00,32.3,26.8,30.14,NW,307,2.0,2.0,80,0.00,,,0.00,Wunderground v.1.15,2013-03-26 11:40:00,
2013-03-26 06:45:00,32.3,26.8,30.15,WNW,299,3.0,9.0,80,0.00,,,0.00,Wunderground v.1.15,2013-03-26 11:45:00,
2013-03-26 06:50:00,32.3,27.1,30.15,WNW,287,2.0,2.0,81,0.00,,,0.00,Wunderground v.1.15,2013-03-26 11:50:00,
2013-03-26 06:57:00,32.2,26.7,30.15,North,355,2.0,9.0,80,0.00,,,0.00,Wunderground v.1.15,2013-03-26 11:57:00,
2013-03-26 07:02:00,32.3,26.8,30.15,WNW,299,3.0,9.0,80,0.00,,,0.00,Wunderground v.1.15,2013-03-26 12:02:00,
2013-03-26 07:08:00,32.3,26.5,30.16,NW,320,2.0,9.0,79,0.00,,,0.00,Wunderground v.1.15,2013-03-26 12:08:00,
2013-03-26 07:13:00,32.4,26.6,30.16,North,349,3.0,9.0,79,0.00,,,0.00,Wunderground v.1.15,2013-03-26 12:13:00,
2013-03-26 07:18:00,32.3,26.5,30.16,WNW,302,3.0,9.0,79,0.00,,,0.00,Wunderground v.1.15,2013-03-26 12:18:00,
2013-03-26 07:24:00,32.4,26.3,30.16,NNW,328,3.0,9.0,78,0.00,,,0.00,Wunderground v.1.15,2013-03-26 12:24:00,
2013-03-26 07:29:00,32.5,26.4,30.17,NNE,20,3.0,9.0,78,0.00,,,0.00,Wunderground v.1.15,2013-03-26 12:29:00,
2013-03-26 07:35:00,32.5,26.1,30.17,NW,320,3.0,9.0,77,0.00,,,0.00,Wunderground v.1.15,2013-03-26 12:35:00,
2013-03-26 07:40:00,32.6,26.2,30.17,NW,307,3.0,9.0,77,0.00,,,0.00,Wunderground v.1.15,2013-03-26 12:40:00,
2013-03-26 07:47:00,32.6,26.2,30.17,NW,309,4.0,9.0,77,0.00,,,0.00,Wunderground v.1.15,2013-03-26 12:47:00,
2013-03-26 07:53:00,32.7,26.6,30.18,WNW,283,3.0,9.0,78,0.00,,,0.00,Wunderground v.1.15,2013-03-26 12:53:00,
2013-03-26 07:58:00,32.7,26.6,30.18,NNW,337,3.0,9.0,78,0.00,,,0.00,Wunderground v.1.15,2013-03-26 12:58:00,
2013-03-26 08:04:00,32.8,26.7,30.18,NW,306,4.0,9.0,78,0.00,,,0.00,Wunderground v.1.15,2013-03-26 13:04:00,
2013-03-26 08:10:00,32.9,26.8,30.19,NNW,337,3.0,9.0,78,0.00,,,0.00,Wunderground v.1.15,2013-03-26 13:10:00,
2013-03-26 08:15:00,33.1,27.0,30.19,NW,314,3.0,9.0,78,0.00,,,0.00,Wunderground v.1.15,2013-03-26 13:15:00,
2013-03-26 08:22:00,33.2,26.8,30.19,NW,325,3.0,9.0,77,0.00,,,0.00,Wunderground v.1.15,2013-03-26 13:22:00,
2013-03-26 08:27:00,33.3,27.2,30.19,WNW,299,3.0,9.0,78,0.00,,,0.00,Wunderground v.1.15,2013-03-26 13:27:00,
2013-03-26 08:32:00,33.3,26.5,30.19,NNW,342,3.0,9.0,76,0.00,,,0.00,Wunderground v.1.15,2013-03-26 13:32:00,
2013-03-26 08:37:00,33.4,27.0,30.20,NW,306,4.0,9.0,77,0.00,,,0.00,Wunderground v.1.15,2013-03-26 13:37:00,
2013-03-26 08:43:00,33.4,27.0,30.20,NW,325,4.0,9.0,77,0.00,,,0.00,Wunderground v.1.15,2013-03-26 13:43:00,
2013-03-26 08:48:00,33.4,27.0,30.20,NW,308,4.0,9.0,77,0.00,,,0.00,Wunderground v.1.15,2013-03-26 13:48:00,
2013-03-26 08:54:00,33.4,27.3,30.20,NNE,17,4.0,9.0,78,0.00,,,0.00,Wunderground v.1.15,2013-03-26 13:54:00,
2013-03-26 08:59:00,33.5,27.4,30.20,NW,324,4.0,9.0,78,0.00,,,0.00,Wunderground v.1.15,2013-03-26 13:59:00,
2013-03-26 09:04:00,33.7,27.6,30.21,WNW,287,2.0,9.0,78,0.00,,,0.00,Wunderground v.1.15,2013-03-26 14:04:00,
2013-03-26 09:10:00,34.0,27.9,30.21,NNW,330,1.0,9.0,78,0.00,,,0.00,Wunderground v.1.15,2013-03-26 14:10:00,
2013-03-26 09:15:00,34.1,27.6,30.20,NNW,347,2.0,9.0,77,0.00,,,0.00,Wunderground v.1.15,2013-03-26 14:15:00,
2013-03-26 09:20:00,34.3,27.8,30.21,NW,317,3.0,9.0,77,0.00,,,0.00,Wunderground v.1.15,2013-03-26 14:20:00,
2013-03-26 09:26:00,34.5,28.0,30.21,WNW,294,3.0,9.0,77,0.00,,,0.00,Wunderground v.1.15,2013-03-26 14:26:00,
2013-03-26 09:32:00,34.9,28.4,30.21,West,275,2.0,9.0,77,0.00,,,0.00,Wunderground v.1.15,2013-03-26 14:32:00,
2013-03-26 09:38:00,34.7,27.9,30.21,NW,306,2.0,9.0,76,0.00,,,0.00,Wunderground v.1.15,2013-03-26 14:38:00,
2013-03-26 09:43:00,34.5,27.4,30.21,NW,313,3.0,9.0,75,0.00,,,0.00,Wunderground v.1.15,2013-03-26 14:43:00,
2013-03-26 09:49:00,34.2,27.7,30.22,NW,321,4.0,9.0,77,0.00,,,0.00,Wunderground v.1.15,2013-03-26 14:49:00,
2013-03-26 09:54:00,34.2,27.7,30.22,WNW,294,4.0,9.0,77,0.00,,,0.00,Wunderground v.1.15,2013-03-26 14:54:00,
2013-03-26 10:00:00,34.4,27.9,30.22,NNW,331,4.0,4.0,77,0.00,,,0.00,Wunderground v.1.15,2013-03-26 15:00:00,
2013-03-26 10:05:00,34.4,27.9,30.22,NW,311,4.0,9.0,77,0.00,,,0.00,Wunderground v.1.15,2013-03-26 15:05:00,
2013-03-26 10:11:00,34.5,28.3,30.23,WNW,298,3.0,9.0,78,0.00,,,0.00,Wunderground v.1.15,2013-03-26 15:11:00,
2013-03-26 10:17:00,34.4,27.9,30.22,NNW,337,4.0,9.0,77,0.00,,,0.00,Wunderground v.1.15,2013-03-26 15:17:00,
2013-03-26 10:22:00,34.4,27.9,30.23,NW,313,4.0,9.0,77,0.00,,,0.00,Wunderground v.1.15,2013-03-26 15:22:00,
2013-03-26 10:27:00,34.6,27.8,30.23,WNW,287,3.0,9.0,76,0.00,,,0.00,Wunderground v.1.15,2013-03-26 15:27:00,
2013-03-26 10:33:00,34.8,28.3,30.23,NW,310,2.0,9.0,77,0.00,,,0.00,Wunderground v.1.15,2013-03-26 15:33:00,
2013-03-26 10:38:00,35.0,28.5,30.23,NNW,337,3.0,9.0,77,0.00,,,0.00,Wunderground v.1.15,2013-03-26 15:38:00,
2013-03-26 10:44:00,35.1,28.0,30.23,NW,313,4.0,9.0,75,0.00,,,0.00,Wunderground v.1.15,2013-03-26 15:44:00,
2013-03-26 10:50:00,35.2,28.4,30.24,WNW,303,4.0,4.0,76,0.00,,,0.00,Wunderground v.1.15,2013-03-26 15:50:00,
2013-03-26 10:55:00,35.0,28.2,30.24,NNW,327,4.0,9.0,76,0.00,,,0.00,Wunderground v.1.15,2013-03-26 15:55:00,
2013-03-26 11:00:00,34.8,28.0,30.24,NW,322,5.0,9.0,76,0.00,,,0.00,Wunderground v.1.15,2013-03-26 16:00:00,
2013-03-26 11:06:00,35.0,28.8,30.24,WNW,293,3.0,9.0,78,0.00,,,0.00,Wunderground v.1.15,2013-03-26 16:06:00,
2013-03-26 11:12:00,35.2,28.4,30.24,NW,309,3.0,9.0,76,0.00,,,0.00,Wunderground v.1.15,2013-03-26 16:12:00,
2013-03-26 11:17:00,35.4,28.6,30.24,North,3,3.0,9.0,76,0.00,,,0.01,Wunderground v.1.15,2013-03-26 16:17:00,
2013-03-26 11:23:00,36.0,29.5,30.24,WNW,299,4.0,9.0,77,0.00,,,0.01,Wunderground v.1.15,2013-03-26 16:23:00,
2013-03-26 11:28:00,36.1,28.9,30.24,NNW,328,4.0,9.0,75,0.00,,,0.01,Wunderground v.1.15,2013-03-26 16:28:00,
2013-03-26 11:33:00,35.8,28.6,30.25,NW,311,4.0,9.0,75,0.00,,,0.01,Wunderground v.1.15,2013-03-26 16:33:00,
2013-03-26 11:38:00,35.7,28.2,30.25,NNW,331,4.0,9.0,74,0.00,,,0.01,Wunderground v.1.15,2013-03-26 16:38:00,
2013-03-26 11:44:00,35.7,28.9,30.25,North,358,3.0,9.0,76,0.00,,,0.01,Wunderground v.1.15,2013-03-26 16:44:00,
2013-03-26 11:49:00,35.5,28.7,30.25,NW,318,3.0,9.0,76,0.00,,,0.01,Wunderground v.1.15,2013-03-26 16:49:00,
2013-03-26 11:54:00,35.6,29.1,30.25,WNW,298,3.0,9.0,77,0.00,,,0.01,Wunderground v.1.15,2013-03-26 16:54:00,
2013-03-26 12:00:00,35.7,29.2,30.25,NW,311,3.0,3.0,77,0.00,,,0.01,Wunderground v.1.15,2013-03-26 17:00:00,
2013-03-26 12:05:00,35.9,29.4,30.25,NNW,331,3.0,9.0,77,0.00,,,0.01,Wunderground v.1.15,2013-03-26 17:05:00,
2013-03-26 12:11:00,35.9,29.1,30.25,NW,306,4.0,9.0,76,0.00,,,0.01,Wunderground v.1.15,2013-03-26 17:11:00,
2013-03-26 12:16:00,35.9,29.1,30.25,North,358,3.0,9.0,76,0.00,,,0.01,Wunderground v.1.15,2013-03-26 17:16:00,
2013-03-26 12:22:00,35.8,28.6,30.25,NW,324,3.0,9.0,75,0.00,,,0.01,Wunderground v.1.15,2013-03-26 17:22:00,
2013-03-26 12:28:00,35.8,29.0,30.25,NW,306,3.0,10.0,76,0.00,,,0.01,Wunderground v.1.15,2013-03-26 17:28:00,
2013-03-26 12:33:00,35.5,28.7,30.25,North,352,5.0,13.0,76,0.00,,,0.01,Wunderground v.1.15,2013-03-26 17:33:00,
2013-03-26 12:39:00,35.6,29.4,30.25,NNW,339,5.0,13.0,78,0.00,,,0.01,Wunderground v.1.15,2013-03-26 17:39:00,
2013-03-26 12:44:00,35.8,29.0,30.26,NNW,331,4.0,9.0,76,0.00,,,0.01,Wunderground v.1.15,2013-03-26 17:44:00,
2013-03-26 12:50:00,36.0,29.2,30.26,NW,304,4.0,9.0,76,0.00,,,0.01,Wunderground v.1.15,2013-03-26 17:50:00,
2013-03-26 12:55:00,36.1,28.6,30.25,WNW,300,4.0,9.0,74,0.00,,,0.01,Wunderground v.1.15,2013-03-26 17:55:00,
2013-03-26 13:01:00,36.6,29.4,30.26,NW,310,3.0,9.0,75,0.00,,,0.01,Wunderground v.1.15,2013-03-26 18:01:00,
2013-03-26 13:06:00,37.2,29.3,30.26,NNW,348,2.0,9.0,73,0.00,,,0.01,Wunderground v.1.15,2013-03-26 18:06:00,
2013-03-26 13:12:00,37.5,28.6,30.25,North,359,3.0,9.0,70,0.00,,,0.01,Wunderground v.1.15,2013-03-26 18:12:00,
2013-03-26 13:17:00,37.6,28.0,30.25,NNW,348,4.0,9.0,68,0.00,,,0.01,Wunderground v.1.15,2013-03-26 18:17:00,
2013-03-26 13:23:00,37.9,27.5,30.25,NW,325,5.0,9.0,66,0.00,,,0.01,Wunderground v.1.15,2013-03-26 18:23:00,
2013-03-26 13:28:00,38.0,27.3,30.25,NNW,344,5.0,10.0,65,0.00,,,0.01,Wunderground v.1.15,2013-03-26 18:28:00,
2013-03-26 13:34:00,38.0,26.9,30.25,NNW,332,5.0,9.0,64,0.00,,,0.01,Wunderground v.1.15,2013-03-26 18:34:00,
2013-03-26 13:40:00,37.8,27.1,30.25,NW,320,4.0,11.0,65,0.00,,,0.01,Wunderground v.1.15,2013-03-26 18:40:00,
2013-03-26 13:45:00,37.1,27.5,30.26,NW,317,5.0,11.0,68,0.00,,,0.01,Wunderground v.1.15,2013-03-26 18:45:00,
2013-03-26 13:51:00,36.7,28.2,30.26,North,352,4.0,9.0,71,0.00,,,0.01,Wunderground v.1.15,2013-03-26 18:51:00,
2013-03-26 13:57:00,36.9,28.0,30.26,WNW,296,2.0,9.0,70,0.00,,,0.01,Wunderground v.1.15,2013-03-26 18:57:00,
2013-03-26 14:02:00,37.5,28.9,30.26,WNW,288,2.0,9.0,71,0.00,,,0.01,Wunderground v.1.15,2013-03-26 19:02:00,
2013-03-26 14:08:00,37.9,29.0,30.26,WNW,297,2.0,9.0,70,0.00,,,0.01,Wunderground v.1.15,2013-03-26 19:08:00,
2013-03-26 14:13:00,38.2,29.3,30.25,NNW,331,2.0,9.0,70,0.00,,,0.01,Wunderground v.1.15,2013-03-26 19:13:00,
2013-03-26 14:18:00,38.9,29.6,30.25,WNW,294,1.0,9.0,69,0.00,,,0.01,Wunderground v.1.15,2013-03-26 19:18:00,
2013-03-26 14:23:00,39.0,27.1,30.25,WNW,299,3.0,9.0,62,0.00,,,0.01,Wunderground v.1.15,2013-03-26 19:23:00,
2013-03-26 14:29:00,39.1,27.2,30.25,NNW,341,3.0,9.0,62,0.00,,,0.01,Wunderground v.1.15,2013-03-26 19:29:00,
2013-03-26 14:34:00,38.5,26.6,30.25,North,10,3.0,10.0,62,0.00,,,0.01,Wunderground v.1.15,2013-03-26 19:34:00,
2013-03-26 14:39:00,38.3,27.2,30.25,WNW,294,5.0,10.0,64,0.00,,,0.01,Wunderground v.1.15,2013-03-26 19:39:00,
2013-03-26 14:45:00,38.1,27.4,30.26,West,280,4.0,9.0,65,0.00,,,0.01,Wunderground v.1.15,2013-03-26 19:45:00,
2013-03-26 14:50:00,37.9,26.4,30.26,NNW,332,4.0,4.0,63,0.00,,,0.01,Wunderground v.1.15,2013-03-26 19:50:00,
2013-03-26 14:57:00,37.5,26.0,30.26,North,1,6.0,9.0,63,0.00,,,0.01,Wunderground v.1.15,2013-03-26 19:57:00,
2013-03-26 15:02:00,37.5,26.4,30.26,NW,320,5.0,9.0,64,0.00,,,0.01,Wunderground v.1.15,2013-03-26 20:02:00,
2013-03-26 15:08:00,37.7,27.0,30.26,NW,323,4.0,9.0,65,0.00,,,0.01,Wunderground v.1.15,2013-03-26 20:08:00,
2013-03-26 15:13:00,37.8,27.1,30.26,NNW,335,4.0,9.0,65,0.00,,,0.01,Wunderground v.1.15,2013-03-26 20:13:00,
2013-03-26 15:19:00,37.6,26.9,30.26,NW,307,5.0,9.0,65,0.00,,,0.01,Wunderground v.1.15,2013-03-26 20:19:00,
2013-03-26 15:25:00,37.4,26.7,30.26,NW,313,4.0,9.0,65,0.00,,,0.01,Wunderground v.1.15,2013-03-26 20:25:00,
2013-03-26 15:30:00,37.5,27.5,30.26,NW,316,3.0,3.0,67,0.00,,,0.01,Wunderground v.1.15,2013-03-26 20:30:00,
2013-03-26 15:35:00,38.0,27.3,30.26,NW,314,2.0,9.0,65,0.00,,,0.01,Wunderground v.1.15,2013-03-26 20:35:00,
2013-03-26 15:41:00,37.6,26.5,30.26,NW,306,3.0,9.0,64,0.00,,,0.01,Wunderground v.1.15,2013-03-26 20:41:00,
2013-03-26 15:46:00,37.2,26.9,30.27,NNW,339,5.0,9.0,66,0.00,,,0.01,Wunderground v.1.15,2013-03-26 20:46:00,
2013-03-26 15:52:00,37.3,26.6,30.27,NW,323,4.0,9.0,65,0.00,,,0.01,Wunderground v.1.15,2013-03-26 20:52:00,
2013-03-26 15:58:00,37.3,26.6,30.27,NW,313,3.0,9.0,65,0.00,,,0.01,Wunderground v.1.15,2013-03-26 20:58:00,
2013-03-26 16:03:00,37.5,26.8,30.27,NW,318,2.0,9.0,65,0.00,,,0.01,Wunderground v.1.15,2013-03-26 21:03:00,
2013-03-26 16:09:00,37.2,26.1,30.27,NW,304,4.0,9.0,64,0.00,,,0.01,Wunderground v.1.15,2013-03-26 21:09:00,
2013-03-26 16:15:00,37.0,26.3,30.27,NW,311,5.0,9.0,65,0.00,,,0.01,Wunderground v.1.15,2013-03-26 21:15:00,
2013-03-26 16:20:00,36.9,26.2,30.27,NW,319,5.0,5.0,65,0.00,,,0.01,Wunderground v.1.15,2013-03-26 21:20:00,
2013-03-26 16:26:00,37.1,25.7,30.27,North,10,4.0,9.0,63,0.00,,,0.01,Wunderground v.1.15,2013-03-26 21:26:00,
2013-03-26 16:31:00,37.1,26.0,30.27,NW,311,4.0,9.0,64,0.00,,,0.01,Wunderground v.1.15,2013-03-26 21:31:00,
2013-03-26 16:37:00,37.3,25.8,30.27,NW,311,3.0,9.0,63,0.00,,,0.01,Wunderground v.1.15,2013-03-26 21:37:00,
2013-03-26 16:42:00,37.3,25.8,30.27,NW,309,4.0,9.0,63,0.00,,,0.01,Wunderground v.1.15,2013-03-26 21:42:00,
2013-03-26 16:48:00,37.3,25.8,30.27,NNW,336,3.0,9.0,63,0.00,,,0.01,Wunderground v.1.15,2013-03-26 21:48:00,
2013-03-26 16:53:00,37.2,26.1,30.27,NW,314,3.0,9.0,64,0.00,,,0.01,Wunderground v.1.15,2013-03-26 21:53:00,
2013-03-26 16:59:00,37.4,26.3,30.27,NW,318,3.0,9.0,64,0.00,,,0.01,Wunderground v.1.15,2013-03-26 21:59:00,
2013-03-26 17:04:00,37.5,27.2,30.27,WNW,292,2.0,9.0,66,0.00,,,0.01,Wunderground v.1.15,2013-03-26 22:04:00,
2013-03-26 17:09:00,37.2,26.1,30.27,NW,314,2.0,9.0,64,0.00,,,0.01,Wunderground v.1.15,2013-03-26 22:09:00,
2013-03-26 17:15:00,36.8,26.5,30.27,NNW,344,4.0,9.0,66,0.00,,,0.01,Wunderground v.1.15,2013-03-26 22:15:00,
2013-03-26 17:20:00,36.7,26.8,30.28,WNW,299,5.0,5.0,67,0.00,,,0.01,Wunderground v.1.15,2013-03-26 22:20:00,
2013-03-26 17:26:00,36.7,26.4,30.28,NW,304,3.0,9.0,66,0.00,,,0.01,Wunderground v.1.15,2013-03-26 22:26:00,
2013-03-26 17:32:00,36.7,26.0,30.28,NW,306,3.0,9.0,65,0.00,,,0.01,Wunderground v.1.15,2013-03-26 22:32:00,
2013-03-26 17:37:00,36.6,25.9,30.28,NNW,348,4.0,9.0,65,0.00,,,0.01,Wunderground v.1.15,2013-03-26 22:37:00,
2013-03-26 17:42:00,36.5,26.2,30.29,NW,317,5.0,9.0,66,0.00,,,0.01,Wunderground v.1.15,2013-03-26 22:42:00,
2013-03-26 17:48:00,36.5,25.8,30.29,NW,304,5.0,10.0,65,0.00,,,0.01,Wunderground v.1.15,2013-03-26 22:48:00,
2013-03-26 17:53:00,36.5,26.2,30.29,NW,311,4.0,9.0,66,0.00,,,0.01,Wunderground v.1.15,2013-03-26 22:53:00,
2013-03-26 17:59:00,36.4,26.1,30.29,NW,311,4.0,9.0,66,0.00,,,0.01,Wunderground v.1.15,2013-03-26 22:59:00,
2013-03-26 18:05:00,36.4,26.1,30.29,NNW,345,2.0,9.0,66,0.00,,,0.01,Wunderground v.1.15,2013-03-26 23:05:00,
2013-03-26 18:11:00,36.3,26.4,30.29,WNW,298,2.0,9.0,67,0.00,,,0.01,Wunderground v.1.15,2013-03-26 23:11:00,
2013-03-26 18:16:00,36.3,26.4,30.29,WNW,302,1.0,9.0,67,0.00,,,0.01,Wunderground v.1.15,2013-03-26 23:16:00,
2013-03-26 18:22:00,36.3,26.0,30.29,NNW,336,2.0,9.0,66,0.00,,,0.01,Wunderground v.1.15,2013-03-26 23:22:00,
2013-03-26 18:28:00,36.2,25.9,30.30,NW,306,3.0,9.0,66,0.00,,,0.01,Wunderground v.1.15,2013-03-26 23:28:00,
2013-03-26 18:34:00,36.1,25.8,30.30,NW,307,2.0,9.0,66,0.00,,,0.01,Wunderground v.1.15,2013-03-26 23:34:00,
2013-03-26 18:39:00,36.1,26.2,30.30,NW,311,2.0,9.0,67,0.00,,,0.01,Wunderground v.1.15,2013-03-26 23:39:00,
2013-03-26 18:45:00,36.1,25.8,30.30,NW,310,3.0,9.0,66,0.00,,,0.01,Wunderground v.1.15,2013-03-26 23:45:00,
2013-03-26 18:50:00,36.1,25.8,30.30,WNW,303,3.0,3.0,66,0.00,,,0.01,Wunderground v.1.15,2013-03-26 23:50:00,
2013-03-26 18:57:00,36.0,26.1,30.30,WNW,303,1.0,9.0,67,0.00,,,0.01,Wunderground v.1.15,2013-03-26 23:57:00,
2013-03-26 19:03:00,35.7,26.2,30.30,WNW,303,0.0,9.0,68,0.00,,,0.01,Wunderground v.1.15,2013-03-27 00:03:00,
2013-03-26 19:08:00,35.6,25.7,30.31,NW,310,2.0,9.0,67,0.00,,,0.01,Wunderground v.1.15,2013-03-27 00:08:00,
2013-03-26 19:14:00,35.6,26.1,30.31,NW,310,3.0,9.0,68,0.00,,,0.01,Wunderground v.1.15,2013-03-27 00:14:00,
2013-03-26 19:19:00,35.5,26.0,30.31,NNW,332,3.0,9.0,68,0.00,,,0.01,Wunderground v.1.15,2013-03-27 00:19:00,
2013-03-26 19:25:00,35.5,26.0,30.31,NW,306,3.0,9.0,68,0.00,,,0.01,Wunderground v.1.15,2013-03-27 00:25:00,
2013-03-26 19:30:00,35.3,26.1,30.31,NW,311,2.0,2.0,69,0.00,,,0.01,Wunderground v.1.15,2013-03-27 00:30:00,
2013-03-26 19:35:00,35.1,25.9,30.31,WNW,303,1.0,9.0,69,0.00,,,0.01,Wunderground v.1.15,2013-03-27 00:35:00,
2013-03-26 19:41:00,34.8,26.0,30.31,WNW,303,1.0,9.0,70,0.00,,,0.01,Wunderground v.1.15,2013-03-27 00:41:00,
2013-03-26 19:46:00,34.8,26.0,30.31,NW,304,1.0,9.0,70,0.00,,,0.01,Wunderground v.1.15,2013-03-27 00:46:00,
2013-03-26 19:52:00,34.5,25.7,30.32,WNW,302,1.0,9.0,70,0.00,,,0.01,Wunderground v.1.15,2013-03-27 00:52:00,
2013-03-26 19:57:00,34.3,25.9,30.32,WNW,294,1.0,9.0,71,0.00,,,0.01,Wunderground v.1.15,2013-03-27 00:57:00,
2013-03-26 20:02:00,34.4,26.3,30.32,WNW,301,2.0,9.0,72,0.00,,,0.01,Wunderground v.1.15,2013-03-27 01:02:00,
2013-03-26 20:08:00,34.4,26.3,30.32,NW,304,2.0,9.0,72,0.00,,,0.01,Wunderground v.1.15,2013-03-27 01:08:00,
2013-03-26 20:13:00,34.2,26.8,30.32,WNW,297,1.0,9.0,74,0.00,,,0.01,Wunderground v.1.15,2013-03-27 01:13:00,
2013-03-26 20:19:00,34.0,26.6,30.32,NW,307,1.0,9.0,74,0.00,,,0.01,Wunderground v.1.15,2013-03-27 01:19:00,
2013-03-26 20:25:00,33.9,26.8,30.33,WNW,289,1.0,9.0,75,0.00,,,0.01,Wunderground v.1.15,2013-03-27 01:25:00,
2013-03-26 20:30:00,34.0,26.6,30.33,NW,304,1.0,1.0,74,0.00,,,0.01,Wunderground v.1.15,2013-03-27 01:30:00,
2013-03-26 20:35:00,33.9,26.5,30.33,WNW,298,1.0,9.0,74,0.00,,,0.01,Wunderground v.1.15,2013-03-27 01:35:00,
2013-03-26 20:41:00,33.7,26.3,30.33,NW,309,1.0,9.0,74,0.00,,,0.01,Wunderground v.1.15,2013-03-27 01:41:00,
2013-03-26 20:48:00,33.5,26.4,30.33,NW,311,1.0,9.0,75,0.00,,,0.01,Wunderground v.1.15,2013-03-27 01:48:00,
2013-03-26 20:54:00,33.4,26.3,30.34,WNW,296,1.0,9.0,75,0.00,,,0.01,Wunderground v.1.15,2013-03-27 01:54:00,
2013-03-26 20:59:00,33.4,26.6,30.34,WNW,300,1.0,9.0,76,0.00,,,0.01,Wunderground v.1.15,2013-03-27 01:59:00,
2013-03-26 21:04:00,33.3,26.5,30.34,NW,310,1.0,9.0,76,0.00,,,0.01,Wunderground v.1.15,2013-03-27 02:04:00,
2013-03-26 21:10:00,33.6,26.5,30.34,WNW,293,1.0,9.0,75,0.00,,,0.01,Wunderground v.1.15,2013-03-27 02:10:00,
2013-03-26 21:15:00,33.7,26.6,30.34,NW,309,1.0,9.0,75,0.00,,,0.01,Wunderground v.1.15,2013-03-27 02:15:00,
2013-03-26 21:22:00,33.9,26.5,30.34,WNW,298,2.0,9.0,74,0.00,,,0.01,Wunderground v.1.15,2013-03-27 02:22:00,
2013-03-26 21:28:00,33.8,26.4,30.34,WNW,303,1.0,9.0,74,0.00,,,0.01,Wunderground v.1.15,2013-03-27 02:28:00,
2013-03-26 21:33:00,33.6,26.2,30.34,WNW,303,1.0,9.0,74,0.00,,,0.01,Wunderground v.1.15,2013-03-27 02:33:00,
2013-03-26 21:38:00,33.3,26.2,30.34,WNW,303,0.0,9.0,75,0.00,,,0.01,Wunderground v.1.15,2013-03-27 02:38:00,
2013-03-26 21:44:00,33.1,26.0,30.34,NW,307,0.0,9.0,75,0.00,,,0.01,Wunderground v.1.15,2013-03-27 02:44:00,
2013-03-26 21:49:00,33.1,26.0,30.34,NW,304,0.0,9.0,75,0.00,,,0.01,Wunderground v.1.15,2013-03-27 02:49:00,
2013-03-26 21:54:00,32.8,26.1,30.34,NW,305,0.0,9.0,76,0.00,,,0.01,Wunderground v.1.15,2013-03-27 02:54:00,
2013-03-26 22:00:00,32.5,25.8,30.35,WNW,302,0.0,9.0,76,0.00,,,0.01,Wunderground v.1.15,2013-03-27 03:00:00,
2013-03-26 22:06:00,32.3,25.9,30.35,WNW,302,0.0,9.0,77,0.00,,,0.01,Wunderground v.1.15,2013-03-27 03:06:00,
2013-03-26 22:12:00,32.3,25.9,30.35,NW,310,0.0,9.0,77,0.00,,,0.01,Wunderground v.1.15,2013-03-27 03:12:00,
2013-03-26 22:18:00,32.4,26.0,30.34,NW,304,1.0,9.0,77,0.00,,,0.01,Wunderground v.1.15,2013-03-27 03:18:00,
2013-03-26 22:23:00,32.4,26.0,30.35,NW,307,1.0,9.0,77,0.00,,,0.01,Wunderground v.1.15,2013-03-27 03:23:00,
2013-03-26 22:29:00,32.4,26.0,30.34,WNW,297,1.0,9.0,77,0.00,,,0.01,Wunderground v.1.15,2013-03-27 03:29:00,
2013-03-26 22:35:00,32.1,25.7,30.35,NW,310,0.0,9.0,77,0.00,,,0.01,Wunderground v.1.15,2013-03-27 03:35:00,
2013-03-26 22:40:00,31.9,25.8,30.35,NW,309,0.0,9.0,78,0.00,,,0.01,Wunderground v.1.15,2013-03-27 03:40:00,
2013-03-26 22:46:00,31.7,25.9,30.35,NW,306,0.0,9.0,79,0.00,,,0.01,Wunderground v.1.15,2013-03-27 03:46:00,
2013-03-26 22:52:00,31.8,26.0,30.35,WNW,299,0.0,9.0,79,0.00,,,0.01,Wunderground v.1.15,2013-03-27 03:52:00,
2013-03-26 22:58:00,32.0,25.9,30.35,WNW,293,0.0,9.0,78,0.00,,,0.01,Wunderground v.1.15,2013-03-27 03:58:00,
2013-03-26 23:00:00,32.1,26.0,30.35,WNW,293,0.0,9.0,78,0.00,,,0.01,Wunderground v.1.15,2013-03-27 04:00:00,
2013-03-26 23:03:00,32.1,26.0,30.35,WNW,294,0.0,9.0,78,0.00,,,0.01,Wunderground v.1.15,2013-03-27 04:03:00,
2013-03-26 23:04:00,32.1,26.0,30.35,WNW,294,0.0,9.0,78,0.00,,,0.01,Wunderground v.1.15,2013-03-27 04:04:00,
2013-03-26 23:09:00,32.3,26.2,30.35,WNW,294,0.0,9.0,78,0.00,,,0.01,Wunderground v.1.15,2013-03-27 04:09:00,
2013-03-26 23:14:00,32.3,26.2,30.36,WNW,293,0.0,9.0,78,0.00,,,0.01,Wunderground v.1.15,2013-03-27 04:14:00,
2013-03-26 23:19:00,32.6,26.2,30.36,WNW,303,1.0,9.0,77,0.00,,,0.01,Wunderground v.1.15,2013-03-27 04:19:00,
2013-03-26 23:25:00,32.9,26.5,30.35,NW,311,0.0,9.0,77,0.00,,,0.01,Wunderground v.1.15,2013-03-27 04:25:00,
2013-03-26 23:30:00,33.1,26.4,30.35,WNW,298,1.0,9.0,76,0.00,,,0.01,Wunderground v.1.15,2013-03-27 04:30:00,
2013-03-26 23:35:00,33.1,26.4,30.35,NW,310,1.0,9.0,76,0.00,,,0.01,Wunderground v.1.15,2013-03-27 04:35:00,
2013-03-26 23:41:00,33.0,26.6,30.35,WNW,303,1.0,9.0,77,0.00,,,0.01,Wunderground v.1.15,2013-03-27 04:41:00,
2013-03-26 23:46:00,32.9,26.5,30.35,WNW,301,0.0,9.0,77,0.00,,,0.01,Wunderground v.1.15,2013-03-27 04:46:00,
2013-03-26 23:52:00,32.3,26.5,30.35,NW,310,0.0,9.0,79,0.00,,,0.01,Wunderground v.1.15,2013-03-27 04:52:00,
2013-03-26 23:58:00,32.2,26.7,30.35,WNW,290,1.0,9.0,80,0.00,,,0.01,Wunderground v.1.15,2013-03-27 04:58:00,